• In Hungary
  • List of Countries
  • For 7 days
  • Water Temperature
  • Satellite Maps
  • Weather Map
  • News
  • Weather Widgets
  • user-avatar
    Login

    Hourly Weather Sonka

    Today, 23 May, Wednesday

    Time Temperature Precipitation Wind Pressure Humidity
    00:00 +10°C° 0 mm 2 mps 746 mmHg 95%
    01:00 +10°C° 0 mm 2 mps 746 mmHg 96%
    02:00 +11°C° 0 mm 1 mps 746 mmHg 97%
    03:00 +10°C° 0 mm 2 mps 746 mmHg 96%
    04:00 +10°C° 0 mm 2 mps 746 mmHg 95%
    05:00 +10°C° 0 mm 2 mps 746 mmHg 94%
    06:00 +13°C° 0 mm 2 mps 746 mmHg 86%
    07:00 +14°C° 0 mm 2 mps 746 mmHg 78%
    08:00 +16°C° 0 mm 3 mps 746 mmHg 69%
    09:00 +17°C° 0 mm 3 mps 746 mmHg 65%
    10:00 +18°C° 0 mm 3 mps 746 mmHg 60%
    11:00 +19°C° 0 mm 3 mps 746 mmHg 55%
    12:00 +20°C° 0 mm 3 mps 746 mmHg 52%
    13:00 +21°C° 0 mm 3 mps 746 mmHg 50%
    14:00 +23°C° 0 mm 2 mps 746 mmHg 47%
    15:00 +21°C° 0 mm 2 mps 745 mmHg 50%
    16:00 +20°C° 0 mm 2 mps 745 mmHg 53%
    17:00 +21°C° 0 mm 1 mps 745 mmHg 56%
    18:00 +19°C° 0 mm 1 mps 745 mmHg 63%
    19:00 +18°C° 0 mm 1 mps 745 mmHg 69%
    20:00 +15°C° 0 mm 1 mps 745 mmHg 76%
    21:00 +14°C° 0 mm 1 mps 745 mmHg 79%
    22:00 +13°C° 0 mm 1 mps 745 mmHg 82%
    23:00 +13°C° 0 mm 1 mps 745 mmHg 85%

    Tomorrow, 24 May, Thursday

    Time Temperature Precipitation Wind Pressure Humidity
    00:00 +12°C° 0 mm 1 mps 745 mmHg 86%
    01:00 +12°C° 0 mm 1 mps 745 mmHg 88%
    02:00 +11°C° 0 mm 1 mps 745 mmHg 90%
    03:00 +12°C° 0 mm 1 mps 745 mmHg 88%
    04:00 +12°C° 0 mm 1 mps 746 mmHg 86%
    05:00 +13°C° 0 mm 1 mps 746 mmHg 84%
    06:00 +15°C° 0 mm 1 mps 746 mmHg 76%
    07:00 +18°C° 0 mm 1 mps 746 mmHg 67%
    08:00 +19°C° 0 mm 2 mps 746 mmHg 59%
    09:00 +20°C° 0 mm 2 mps 746 mmHg 54%
    10:00 +21°C° 0 mm 2 mps 746 mmHg 50%
    11:00 +23°C° 0 mm 2 mps 746 mmHg 46%
    12:00 +22°C° 0 mm 3 mps 746 mmHg 46%
    13:00 +24°C° 0 mm 3 mps 746 mmHg 46%
    14:00 +24°C° 0 mm 3 mps 746 mmHg 45%
    15:00 +22°C° 0.1 mm 3 mps 746 mmHg 51%
    16:00 +21°C° 0.1 mm 3 mps 746 mmHg 56%
    17:00 +21°C° 0.1 mm 3 mps 746 mmHg 62%
    18:00 +19°C° 0.1 mm 3 mps 747 mmHg 69%
    19:00 +17°C° 0.1 mm 2 mps 747 mmHg 77%
    20:00 +16°C° 0.1 mm 2 mps 747 mmHg 84%
    21:00 +15°C° 0 mm 2 mps 748 mmHg 84%
    22:00 +13°C° 0 mm 2 mps 748 mmHg 83%
    23:00 +12°C° 0 mm 2 mps 748 mmHg 83%

    Day after tomorrow, 25 May, Friday

    Time Temperature Precipitation Wind Pressure Humidity
    00:00 +10°C° 0 mm 2 mps 749 mmHg 81%
    01:00 +9°C° 0 mm 2 mps 749 mmHg 80%
    02:00 +8°C° 0 mm 2 mps 749 mmHg 78%
    03:00 +8°C° 0 mm 2 mps 750 mmHg 75%
    04:00 +8°C° 0 mm 2 mps 750 mmHg 72%
    05:00 +8°C° 0 mm 2 mps 750 mmHg 70%
    06:00 +12°C° 0 mm 2 mps 751 mmHg 61%
    07:00 +14°C° 0 mm 2 mps 751 mmHg 53%
    08:00 +16°C° 0 mm 2 mps 752 mmHg 45%
    09:00 +17°C° 0 mm 2 mps 752 mmHg 42%
    10:00 +18°C° 0 mm 2 mps 752 mmHg 39%
    11:00 +19°C° 0 mm 2 mps 752 mmHg 35%
    12:00 +20°C° 0 mm 2 mps 752 mmHg 35%
    13:00 +20°C° 0 mm 2 mps 752 mmHg 34%
    14:00 +21°C° 0 mm 2 mps 752 mmHg 34%
    15:00 +21°C° 0 mm 2 mps 752 mmHg 36%
    16:00 +21°C° 0 mm 2 mps 752 mmHg 37%
    17:00 +20°C° 0 mm 2 mps 752 mmHg 39%
    18:00 +19°C° 0 mm 1 mps 752 mmHg 47%
    19:00 +16°C° 0 mm 1 mps 752 mmHg 55%
    20:00 +14°C° 0 mm 1 mps 752 mmHg 63%
    21:00 +13°C° 0 mm 1 mps 753 mmHg 64%
    22:00 +12°C° 0 mm 1 mps 753 mmHg 66%
    23:00 +11°C° 0 mm 1 mps 753 mmHg 67%

    26 May, Saturday

    Time Temperature Precipitation Wind Pressure Humidity
    00:00 +11°C° 0 mm 1 mps 753 mmHg 68%
    01:00 +10°C° 0 mm 1 mps 754 mmHg 68%
    02:00 +10°C° 0 mm 1 mps 754 mmHg 69%
    03:00 +9°C° 0 mm 2 mps 754 mmHg 68%
    04:00 +10°C° 0 mm 2 mps 755 mmHg 67%
    05:00 +10°C° 0 mm 2 mps 755 mmHg 67%
    06:00 +14°C° 0 mm 2 mps 755 mmHg 60%
    07:00 +16°C° 0 mm 2 mps 755 mmHg 53%
    08:00 +18°C° 0 mm 2 mps 755 mmHg 46%
    09:00 +19°C° 0 mm 2 mps 755 mmHg 43%
    10:00 +21°C° 0 mm 2 mps 755 mmHg 39%
    11:00 +23°C° 0 mm 2 mps 755 mmHg 35%
    12:00 +22°C° 0 mm 3 mps 754 mmHg 35%
    13:00 +24°C° 0 mm 3 mps 754 mmHg 35%
    14:00 +24°C° 0 mm 3 mps 753 mmHg 35%
    15:00 +24°C° 0 mm 3 mps 753 mmHg 37%
    16:00 +24°C° 0 mm 3 mps 753 mmHg 39%
    17:00 +22°C° 0 mm 3 mps 752 mmHg 42%
    18:00 +20°C° 0 mm 2 mps 752 mmHg 50%
    19:00 +18°C° 0 mm 2 mps 752 mmHg 59%
    20:00 +16°C° 0 mm 2 mps 752 mmHg 68%
    21:00 +15°C° 0 mm 2 mps 752 mmHg 70%
    22:00 +14°C° 0 mm 2 mps 752 mmHg 72%
    23:00 +13°C° 0 mm 3 mps 752 mmHg 73%

    27 May, Sunday

    Time Temperature Precipitation Wind Pressure Humidity
    00:00 +12°C° 0 mm 3 mps 752 mmHg 74%
    01:00 +12°C° 0 mm 3 mps 752 mmHg 74%
    02:00 +12°C° 0 mm 3 mps 752 mmHg 74%
    03:00 +12°C° 0 mm 3 mps 751 mmHg 74%
    04:00 +12°C° 0 mm 3 mps 751 mmHg 73%
    05:00 +13°C° 0 mm 4 mps 751 mmHg 73%
    06:00 +14°C° 0 mm 4 mps 751 mmHg 68%
    07:00 +17°C° 0 mm 4 mps 750 mmHg 62%
    08:00 +19°C° 0 mm 4 mps 750 mmHg 57%
    09:00 +20°C° 0 mm 4 mps 750 mmHg 54%
    10:00 +22°C° 0 mm 4 mps 750 mmHg 51%
    11:00 +23°C° 0 mm 4 mps 749 mmHg 47%
    12:00 +23°C° 0.1 mm 4 mps 749 mmHg 47%
    13:00 +25°C° 0.1 mm 4 mps 749 mmHg 46%
    14:00 +25°C° 0.1 mm 4 mps 749 mmHg 45%
    15:00 +23°C° 0 mm 4 mps 749 mmHg 45%
    16:00 +23°C° 0 mm 4 mps 749 mmHg 44%
    17:00 +22°C° 0 mm 4 mps 748 mmHg 43%
    18:00 +20°C° 0 mm 3 mps 749 mmHg 48%
    19:00 +18°C° 0 mm 3 mps 749 mmHg 53%
    20:00 +15°C° 0 mm 2 mps 749 mmHg 58%
    21:00 +14°C° 0 mm 2 mps 750 mmHg 59%
    22:00 +13°C° 0 mm 2 mps 750 mmHg 61%
    23:00 +10°C° 0 mm 2 mps 751 mmHg 63%

    28 May, Monday

    Time Temperature Precipitation Wind Pressure Humidity
    00:00 +9°C° 0 mm 2 mps 751 mmHg 64%
    01:00 +8°C° 0 mm 2 mps 752 mmHg 65%
    02:00 +8°C° 0 mm 1 mps 752 mmHg 67%
    03:00 +9°C° 0 mm 1 mps 752 mmHg 64%
    04:00 +9°C° 0 mm 1 mps 753 mmHg 61%
    05:00 +10°C° 0 mm 1 mps 753 mmHg 58%
    06:00 +12°C° 0 mm 1 mps 753 mmHg 51%
    07:00 +14°C° 0 mm 2 mps 753 mmHg 45%
    08:00 +16°C° 0 mm 2 mps 753 mmHg 38%
    09:00 +17°C° 0 mm 2 mps 753 mmHg 35%
    10:00 +19°C° 0 mm 2 mps 753 mmHg 32%
    11:00 +20°C° 0 mm 2 mps 753 mmHg 29%
    12:00 +21°C° 0 mm 2 mps 753 mmHg 29%
    13:00 +21°C° 0 mm 2 mps 752 mmHg 29%
    14:00 +23°C° 0 mm 2 mps 752 mmHg 28%
    15:00 +21°C° 0 mm 3 mps 751 mmHg 31%
    16:00 +21°C° 0 mm 3 mps 751 mmHg 33%
    17:00 +21°C° 0 mm 3 mps 750 mmHg 36%
    18:00 +19°C° 0 mm 3 mps 750 mmHg 44%
    19:00 +17°C° 0 mm 3 mps 750 mmHg 52%
    20:00 +15°C° 0 mm 2 mps 749 mmHg 59%
    21:00 +14°C° 0 mm 2 mps 750 mmHg 61%
    22:00 +13°C° 0 mm 2 mps 750 mmHg 62%
    23:00 +12°C° 0 mm 2 mps 750 mmHg 63%
    Show more